Regional Weather Roundup
Issued by NWS Pendleton, OR

Home | Current Version | Previous Version | Text Only | Print | Product List | Glossary On
Versions: 1 2 3 4 5 6 7 8 9 10 11 12 13 14 15 16 17 18 19 20 21 22 23 24 25 26 27 28 29 30 31 32 33 34 35 36 37 38 39 40 41 42 43 44 45 46 47 48 49 50
000
ASUS46 KPDT 190825
RWRPDT
PENDLETON REGIONAL WEATHER ROUNDUP
NATIONAL WEATHER SERVICE PENDLETON OREGON
1200 AM PST SUN NOV 19 2017

NOTE: FAIR INDICATES FEW OR NO CLOUDS BELOW 12,000 FEET WITH NO
SIGNIFICANT WEATHER AND/OR OBSTRUCTIONS TO VISIBILITY.

# INDICATES UNOFFICIAL STATION AND DATA

WAZ520-190910-
EAST SLOPES OF WASHINGTON CASCADES

CITY            SKY/WX      TMP DP  RH  WIND    PRES   REMARKS
#BULLFROG       N/A         33  32  96  CALM    N/A
#CLE ELUM HS    N/A         33  31  92  CALM    30.06F
#CLE ELUM LAKE  N/A         31  30  96  CALM    30.03F
#EASTON DOT     N/A         31  30  96  N1      N/A
#ELK HTS DOT    N/A         31  31  100 CALM    N/A
#GLENWOOD       N/A         25  24  96  CALM    30.18F
#NELSON 3SW     N/A         30  28  92  CALM    30.36F
#NILE           N/A         30  29  96  CALM    29.42F
#TEANAWAY 4NE   N/A         30  29  96  CALM    N/A
#TROUT LAKE 1NE N/A         27  26  96  CALM    30.18F
#TROUT LAKE 1E  N/A         26  25  96  CALM    30.15S
$$

WAZ521-190910-
SIMCOE HIGHLANDS

CITY            SKY/WX      TMP DP  RH  WIND    PRES   REMARKS
#BICKLETON HS   N/A         N/A N/A N/A N1      30.07F
#CENTERVILLE 1SWN/A         28  24  85  CALM    30.14F
#GOLDENDALE 1NE N/A         30  20  66  N3      N/A
#GOLDENDALE 4W  N/A         28  19  68  CALM    30.14F
#GOODNOE HILLS  N/A         36  30  79  W3      N/A
#LYLE 6NE       N/A         34  32  92  CALM    30.18F
#PITT 4SE       N/A         33  31  92  CALM    30.20S
$$

WAZ026-190910-
KITTITAS VALLEY

CITY            SKY/WX      TMP DP  RH  WIND    PRES   REMARKS
ELLENSBURG AP   CLOUDY      32  28  85  N3      30.09F
#ELLENSBURG CWU N/A         32  28  85  CALM    30.09F
#ELLENSBURG 3NE N/A         30  27  88  CALM    28.17F
#ELLENSBURG 1E  N/A         29  26  88  CALM    30.20F
#KITTITAS 3S    N/A         27  25  92  CALM    30.15F
#MANASTASH RDG  N/A         33  33  100 CALM    N/A
#RYEGRASS DOT   N/A         34  27  75  S5      N/A
$$

WAZ027-190910-
YAKIMA VALLEY

CITY            SKY/WX      TMP DP  RH  WIND    PRES   REMARKS
SUNNYSIDE AP    CLOUDY      31  28  88  CALM    30.11F
YAKIMA AIRPORT  CLOUDY      35  30  82  CALM    30.12F
YAKIMA-VAGABOND PTCLDY      31  28  88  S5      30.09F
#DONALD 2NE     N/A         38  17  42  W2      28.95F
#GRANDVIEW      N/A         37  30  75  CALM    30.07F
#MABTON         N/A         34  31  89  CALM    30.12F
#MOXEE 2E       N/A         49  N/A N/A E3      30.08F
#NACHES 2SW     N/A         35  31  85  CALM    30.12S
#OUTLOOK DOT    N/A         35  31  85  CALM    30.09F
#PARKER DOT     N/A         38  31  76  CALM    30.10F
#TERRACE HTS    N/A         33  30  89  CALM    30.12F
#TOPPENISH      N/A         35  32  89  CALM    30.07S
#I82 S UMTANUM RN/A         33  28  82  NE2     N/A
#UNION GAP DOT  N/A         33  30  89  N1      30.15F
#W YAKIMA       N/A         35  31  85  NW1     30.14F
#WHITE SWAN 5E  N/A         32  30  92  CALM    30.16F
#WILEY CITY 3W  N/A         33  26  75  CALM    30.07F
#ZILLAH DOT     N/A         35  29  78  E1      N/A
$$

WAZ028-190910-
LOWER COLUMBIA BASIN...WASHINGTON

CITY            SKY/WX      TMP DP  RH  WIND    PRES   REMARKS
PASCO           CLOUDY      32  31  96  CALM    30.15F
PROSSER AWOS    N/A         36  32  85  CALM    30.15F
RICHLAND AWOS   CLOUDY      38  35  89  E5      30.14F
#BENTON CITY    N/A         38  31  76  CALM    30.06F
#CONNELL 5N     N/A         33  29  85  NE1     30.15F
#CONNELL 5NW    N/A         35  31  85  E1      30.10F
#ELTOPIA 6NW    N/A         36  32  85  CALM    29.09F
#KAHLOTUS       N/A         32  28  85  S7      30.14F
#PATERSON       N/A         35  33  92  CALM    30.16F
#PROSSER DOT    N/A         39  35  85  CALM    30.14F
#SAGEMOOR 2W    N/A         35  31  85  CALM    30.02F
#TOUCHET 2S     N/A         31  28  88  CALM    30.14F
#WEST PASCO     N/A         35  32  89  CALM    30.15F
$$

WAZ029-190910-
FOOTHILLS OF THE BLUES...WASHINGTON

CITY            SKY/WX      TMP DP  RH  WIND    PRES   REMARKS
WALLA WALLA AP  MOCLDY      37  29  72  E5      30.12F
#CLYDE 6NW      N/A         35  29  78  CALM    30.15F
#DAYTON SCHOOL  N/A         31  21  66  CALM    30.12F
#DELANEY DOT    N/A         29  27  92  CALM    30.16F
#LOWDEN 2SE     N/A         31  29  92  CALM    30.11F
#PLEASANT VIEW 1N/A         37  28  70  SW5     30.19F
#PRESCOTT       N/A         32  29  89  CALM    30.15F
#WHITMAN COLLEGEN/A         42  30  62  N1      30.11F
#WAITSBURG 5S   N/A         40  27  59  CALM    30.24F
#WAITSBURG 6SSE N/A         44  23  43  SE3     30.11F
#WAITSBURG 8N   N/A         31  N/A N/A CALM    30.15S
#WALLA WALLA 5E N/A         49  27  42  S12     N/A    WCI 44
#WALLA WALLA U  N/A         36  33  89  CALM    30.16F
#WHITMAN MISSIONN/A         32  29  89  CALM    30.16F
$$

WAZ030-190910-
BLUE MOUNTAINS...WASHINGTON

CITY            SKY/WX      TMP DP  RH  WIND    PRES   REMARKS
#DIXIE 5SE      N/A         44  21  40  SE13    30.02F WCI 38
$$

ORZ009-041-WAZ024-190910-
COLUMBIA RIVER GORGE

CITY            SKY/WX      TMP DP  RH  WIND    PRES   REMARKS
HOOD RIVER AP   PTCLDY      32  32  100 S3      30.17F
THE DALLES AP   PTCLDY      34  32  92  CALM    30.17F
#ARLINGTON AIRPON/A         37  34  89  SW3     30.17F
#ARLINGTON HS   N/A         36  30  79  N1      30.08F
#CELILO DOT     N/A         39  31  73  S1      N/A
#LYLE           N/A         38  34  85  NE7     30.19F
#MARYHILL       N/A         37  33  85  N2      N/A
#MURDOCK        N/A         38  34  85  W3      30.14F
#RUFUS DOT      N/A         38  N/A N/A S8      N/A
#SMITHVILLE     N/A         37  34  89  N1      30.12F

$$

ORZ510-190910-
NORTH CENTRAL OREGON

CITY            SKY/WX      TMP DP  RH  WIND    PRES   REMARKS
#ANTELOPE       N/A         30  24  78  NE2     30.08F
#CHENOWITH 1W   N/A         34  32  92  NW5     N/A
#COW CYN RST AREN/A         38  N/A N/A SW5     N/A
#DUFUR          N/A         28  26  92  CALM    30.15F
#DUFUR 9E       N/A         37  28  70  CALM    30.21F
#GRASS VALLEY 1SN/A         32  27  82  CALM    30.11S
#KENT DOT       N/A         31  20  63  S8      N/A
#MAUPIN SCHOOL  N/A         33  29  85  CALM    30.19F
#MORO SCHOOL    N/A         31  30  96  CALM    30.10F
#SHANIKO 5WSW   N/A         36  N/A N/A S9      N/A
#SHANIKO 4NW    N/A         36  23  59  S16     30.08F WCI 26
#TYGH VALLEY 2NEN/A         31  27  85  CALM    30.18F
#WAPANITIA AIRPON/A         29  26  88  CALM    30.20F
#WASCO DOT      N/A         29  27  92  SE1     N/A
#WASCO 5NE      N/A         33  23  66  CALM    30.16F
$$

ORZ511-190910-
CENTRAL OREGON

CITY            SKY/WX      TMP DP  RH  WIND    PRES   REMARKS
BEND AIRPORT    MOCLDY      36  25  64  S13     30.12F WCI 27
PRINEVILLE AP   CLOUDY      32  23  69  S3      30.13F
REDMOND AIRPORT CLOUDY      32  22  66  E5      30.11F
#ASHWOOD SCHOOL N/A         27  25  92  CALM    30.08F
#BEND 1SW       N/A         32  26  78  CALM    N/A
#BEND-AWBREY    N/A         37  28  70  S12     30.17F WCI 29
#BEND-KIM LN    N/A         28  23  81  CALM    30.16F
#CULVER         N/A         40  25  55  S2      30.03F
#CULVER 8W      N/A         35  21  56  CALM    30.10F
#LAKE BILLY CHINN/A         33  N/A N/A W3      30.19F
#MADRAS 4S      N/A         36   0  21  CALM    N/A
#POWELL BUTTE   N/A         40  20  44  SE3     30.03F
#PRINEVILLE     N/A         30  25  81  CALM    30.30F
#PRINEVILLE 3N  N/A         28  22  78  CALM    30.21F
#WARM SPRINGS   N/A         28  25  88  CALM    30.03F

$$


ORZ509-190910-
EAST SLOPES OF OREGON CASCADES

CITY            SKY/WX      TMP DP  RH  WIND    PRES   REMARKS
#CAMP SHERMAN   N/A         26  23  88  CALM    30.24S
#LA PINE 4NW    N/A         24  20  84  CALM    30.32S
#LAVA BUTTE DOT N/A         29  20  69  SE1     N/A
#SISTERS ODOT   N/A         26  23  88  CALM    N/A
#SISTERS 3N     N/A         25  17  71  CALM    30.11S
#SUNRIVER       N/A         29  26  88  S1      30.25F
#TUMALO 3W      N/A         34  22  61  W3      30.06F
#WANOGA BUTTE D N/A         27  17  65  W8      N/A

$$

ORZ044-190910-
LOWER COLUMBIA BASIN...OREGON

CITY            SKY/WX      TMP DP  RH  WIND    PRES   REMARKS
HERMISTON       MOCLDY      31  30  96  CALM    30.15F
#BOARDMAN SCHOOLN/A         32  29  89  CALM    30.16S
#BOARDMAN 8SW   N/A         36  33  89  CALM    30.17F
#ECHO 8SW       N/A         34  31  89  SW1     30.16F
#I-84 EX 198 DOTN/A         38  30  73  NE2     N/A
#IONE SCHOOL    N/A         31  17  56  CALM    30.19F
#UMATILLA       N/A         34  29  82  CALM    30.10F
$$

ORZ507-190910-
NORTHERN FOOTHILLS OF THE BLUES

CITY            SKY/WX      TMP DP  RH  WIND    PRES   REMARKS
PENDLETON AIRPT MOCLDY      38  28  67  CALM    30.12F
#ADAMS 3WNW     N/A         36  28  72  CALM    30.16F
#ATHENA         N/A         44  26  49  SE2     30.17F
#CAYUSE         N/A         44  26  49  CALM    30.14F
#HELIX SCHOOL   N/A         28  25  88  CALM    30.17F
#HELIX 3N       N/A         38  28  67  SE15    30.08F WCI 29
#HOLDMAN 5SE    N/A         34  30  85  SE2     30.11F
#HOLDMAN 6E     N/A         36  28  72  E1      29.96F
#M-F GROVE ELEM N/A         48  22  35  S3      30.08F
#M-FREEWATER 5SEN/A         48  26  42  E14     30.11F WCI 42
#PENDLETON DNTN N/A         30  21  69  CALM    30.13S
#PDT AQUATIC CTRN/A         29  23  78  CALM    29.90F
#PDT SUNRIDGE   N/A         25  24  96  CALM    30.15F
#PENDLETON 6SE  N/A         42  27  55  SW10    30.12F
#PENDLETON 7NW  N/A         31  27  85  E8      30.22R
#PILOT ROCK 1S  N/A         33  23  66  CALM    30.12F
#PILOT ROCK     N/A         32  26  78  CALM    30.13F
#TUTUILLA       N/A         30  27  88  CALM    30.18F
#UMAPINE 2E     N/A         38  30  73  N2      30.10F

$$

ORZ508-190910-
SOUTHERN FOOTHILLS OF THE BLUES

CITY            SKY/WX      TMP DP  RH  WIND    PRES   REMARKS
LEXINGTON       MOCLDY      39  27  62  SE8     30.14F
#AJAX           N/A         36  23  59  CALM    30.24F
#CONDON 5W      N/A         36  25  64  CALM    30.06F
#HEPPNER EOC    N/A         35  26  69  E5      30.09F
#HEPPNER 4NE    N/A         39  23  52  CALM    30.16F
#LEXINGTON 2SE  N/A         34  28  78  SE6     30.07F
#MIKKALO        N/A         33  28  82  E2      30.21F
#OLEX 4N        N/A         34  31  89  S6      30.12S
#RUGGS 5NE      N/A         41  21  44  S5      30.27S
#RUGGS 2SW      N/A         39  23  52  SW5     30.19F

$$

ORZ502-503-190910-
BLUE MOUNTAINS

CITY            SKY/WX      TMP DP  RH  WIND    PRES   REMARKS
MEACHAM         MOCLDY      34  22  61  CALM    30.12F
#BATTLE MTN DOT N/A         31  16  53  S9      N/A
#GRANITE        N/A         27  16  63  CALM    30.21S
#GREENHORN 9SW  N/A         34  24  66  SE1     30.16S
#LADD CYN SMT   N/A         35  19  52  SE16G24 N/A    WCI 25
#LADD CREEK ODOTN/A         37  21  52  S8      N/A
#LONG CREEK HS  N/A         41  25  53  SW3     30.13F
#N POWDER DOT   N/A         35  21  56  SE14    N/A    WCI 26
#PIKES PEAK     N/A         44  17  33  CALM    27.99S
#TOLLGATE       N/A         29  20  69  SW1     29.95F
#TROY SCHOOL    N/A         32  29  89  CALM    30.10F
#UKIAH          N/A         24  21  88  CALM    30.18F
#WESTON 4E      N/A         39  23  52  E9      30.15F
$$

ORZ505-190910-
JOHN DAY BASIN

CITY            SKY/WX      TMP DP  RH  WIND    PRES   REMARKS
JOHN DAY        MOCLDY      33  23  66  E7      30.16F
#ANTELOPE 9ESE  N/A         30  25  81  CALM    N/A
#DAYVILLE SCHOOLN/A         38  21  50  SE5     30.12S
#MITCHELL 8NW   N/A         41  21  44  S5      30.22F
#MONUMENT HS    N/A         28  23  81  CALM    30.12S
#MT. VERNON 5SE N/A         35  23  61  S5      30.11S
#WINLOCK        N/A         36  22  56  W1      30.08F
$$

ORZ506-190910-
OCHOCO AND JOHN DAY HIGHLANDS

CITY            SKY/WX      TMP DP  RH  WIND    PRES   REMARKS
#HORSE RIDGE DO N/A         22  17  81  SW1     N/A
#IZEE 6NW       N/A         26  21  81  S3      N/A
#PAULINA ODOT   N/A         24  18  77  CALM    N/A
#PINE MTN OBS   N/A         32  18  56  S18     N/A    WCI 21
#PRAIRIE CITY   N/A         25  17  71  CALM    30.34R
#SENECA         N/A         23  N/A N/A CALM    N/A
#SENECA 9NW     N/A         24  21  88  CALM    30.33F
$$

ORZ049-190910-
GRANDE RONDE VALLEY

CITY            SKY/WX      TMP DP  RH  WIND    PRES   REMARKS
LA GRANDE       MOCLDY      39  21  48  SE15G24 30.20S WCI 31
#COVE SCHOOL    N/A         43  23  45  E2      30.17F
#COVE 6NW       N/A         39  24  54  S5      30.25F
#ELGIN 3N       N/A         39  18  42  W14     30.12F WCI 31
#ELGIN 1E       N/A         40  23  50  SE3     N/A
#IMBLER SCHOOL  N/A         36  23  59  CALM    30.13F
#ISLAND CITY 4N N/A         40  39  96  CALM    30.19R
#LADD CYN DOT   N/A         40  23  50  S21G29  N/A    WCI 30
#UNION 1S       N/A         39  23  52  SE10    30.27F
$$

ORZ050-190910-
WALLOWA COUNTY

CITY            SKY/WX      TMP DP  RH  WIND    PRES   REMARKS
JOSEPH AIRPORT  MOCLDY      27  23  85  CALM    30.15F
#ENTERPRISE HS  N/A         25  21  84  CALM    30.17R
#IMNAHA SCHOOL  N/A         47  22  37  N12     30.17S WCI 42
#IMNAHA 10S     N/A         43  20  39  SW10    30.14F
#JOSEPH         N/A         28  18  66  CALM    30.54F
#JOSEPH 3N      N/A         23  17  77  CALM    30.15F
#JOSEPH 3W      N/A         28  16  60  CALM    30.54F
#LOSTINE        N/A         25  21  84  CALM    30.07F
#LOSTINE 3SE    N/A         26  20  78  SW1     30.19F
#MT HOWARD 8000 N/A         33  -2  22  W8      30.06R
#PROMISE 1S     N/A         33  23  66  CALM    30.30F
#WALLOWA SCHOOL N/A         24  21  88  CALM    30.15F



$$



USA.gov is the U.S. government's official web portal to all federal, state and local government web resources and services.